Waarnemingen

Advertentie
Mijn weer
Ueckermünde, Duitsland (10193): temperatuur & dauwpunt: 10.12.2017 02:00:00 - 16.12.2017 02:00:00 (CET)Ueckermünde, Duitsland (10193): temperatuur 5cm & temperatuur -5cm: 10.12.2017 02:00:00 - 16.12.2017 02:00:00 (CET)Ueckermünde, Duitsland (10193): temperatuur -20cm & temperatuur -100cm: 10.12.2017 02:00:00 - 16.12.2017 02:00:00 (CET)Ueckermünde, Duitsland (10193): windsnelheid & windstoten: 10.12.2017 02:00:00 - 16.12.2017 02:00:00 (CET)Ueckermünde, Duitsland (10193): windrichting: 10.12.2017 02:00:00 - 16.12.2017 02:00:00 (CET)Ueckermünde, Duitsland (10193): luchtdruk: 10.12.2017 02:00:00 - 16.12.2017 02:00:00 (CET)Ueckermünde, Duitsland (10193): zicht: 10.12.2017 02:00:00 - 16.12.2017 02:00:00 (CET)Ueckermünde, Duitsland (10193): Zonneschijnduur: 10.12.2017 02:00:00 - 16.12.2017 02:00:00 (CET)Ueckermünde, Duitsland (10193): neerslag: 10.12.2017 02:00:00 - 16.12.2017 02:00:00 (CET)
Datum & Tijd tt [°C] td [°C] tt 5cm [°C] tt -5cm [°C] tt -20cm [°C] tt -100cm [°C] ff [km/u] ff [kn] fx [km/u] fx [kn] dd ppp [hPa] vv [km] sd [min] rr [mm]
16.12.2017 02:00:00 0,7 0,4 -0,1 0,9 2,6 6,2 8 4 14 7 ZZW 1000,3 6 0 0,0
16.12.2017 01:00:00 1,3 0,8 0,4 1,2 2,6 6,2 9 5 16 9 ZZW 1000,1 6 0 0,0
16.12.2017 00:00:00 1,3 0,8 0,5 1,4 2,6 6,2 11 6 16 9 ZW 999,9 6 0 0,0
15.12.2017 23:00:00 1,3 0,9 1,1 1,4 2,5 6,2 11 6 16 9 ZZW 999,7 7 0 0,0
15.12.2017 22:00:00 1,4 0,9 1,1 1,3 2,5 6,2 11 6 19 10 ZW 999,3 7 0 0,0
15.12.2017 21:00:00 1,4 0,8 1,0 1,0 2,6 6,2 13 7 19 10 ZW 998,9 8 0 0,0
15.12.2017 20:00:00 1,2 0,7 0,8 1,0 2,6 6,2 11 6 16 9 ZW 998,6 9 0 0,0
15.12.2017 19:00:00 0,8 0,5 0,2 1,0 2,7 6,2 11 6 15 8 ZZW 998,1 9 0 0,0
15.12.2017 18:00:00 0,7 0,7 0,1 1,1 2,7 6,2 10 5 13 7 Z 997,7 4,9 0 0,0
15.12.2017 17:00:00 0,1 -0,4 -2,6 1,2 2,7 6,2 6 4 10 5 ZZW 997,2 8 0 0,0
15.12.2017 16:00:00 2,3 0,8 1,0 2,0 2,7 6,3 7 4 10 5 ZZW 996,9 22 0 0,0
15.12.2017 15:00:00 2,2 0,8 0,9 2,3 2,6 6,3 7 4 11 6 ZW 996,1 23 0 0,0
15.12.2017 14:00:00 2,7 1,0 2,6 2,3 2,5 6,3 8 4 11 6 ZZW 995,6 26 0 0,0
15.12.2017 13:00:00 2,2 0,7 2,2 1,6 2,5 6,3 5 3 10 5 ZZW 995,1 26 7 0,0
15.12.2017 12:00:00 1,6 0,5 0,9 1,1 2,5 6,3 7 4 11 6 ZW 994,7 17 37 0,0
15.12.2017 11:00:00 1,1 0,4 0,0 0,9 2,5 6,3 8 4 14 7 ZZW 994,6 15 15 0,0
15.12.2017 10:00:00 0,9 0,5 0,3 0,9 2,6 6,3 10 5 14 7 Z 994,1 18 3 0,0
15.12.2017 09:00:00 0,5 0,1 -1,0 0,9 2,6 6,3 9 5 16 9 ZW 993,6 18 0 0,0
15.12.2017 08:00:00 0,8 0,2 -0,6 0,9 2,6 6,3 10 5 18 10 Z 992,9 16 0 0,0
15.12.2017 07:00:00 2,0 0,9 0,8 1,5 2,6 6,3 14 8 18 10 Z 992,7 26 0 0,0
15.12.2017 06:00:00 2,2 1,1 1,6 1,4 2,6 6,3 11 6 16 9 ZZW 992,5 26 0 0,0
15.12.2017 05:00:00 2,2 1,0 1,6 1,4 2,6 6,3 12 7 21 11 Z 992,0 24 0 0,0
15.12.2017 04:00:00 2,3 0,9 1,6 1,2 2,6 6,3 13 7 24 13 ZZW 991,6 26 0 0,0
15.12.2017 03:00:00 2,3 0,6 1,4 0,9 2,7 6,3 15 8 24 13 ZZW 991,6 30 0 0,0
15.12.2017 02:00:00 1,8 0,5 0,8 0,9 2,7 6,3 13 7 24 13 ZZW 991,3 27 0 0,0
15.12.2017 01:00:00 1,5 0,4 0,8 0,8 2,8 6,3 13 7 25 14 ZZW 991,5 28 0 0,0
15.12.2017 00:00:00 1,6 -0,2 0,2 0,7 2,9 6,3 16 9 29 16 ZZW 991,1 28 0 0,0
14.12.2017 23:00:00 2,1 0,4 0,7 1,2 2,9 6,3 18 10 27 15 ZW 990,6 32 0 0,0
14.12.2017 22:00:00 1,8 0,5 1,0 1,2 3,0 6,3 17 9 27 14 ZW 990,5 23 0 0,0
14.12.2017 21:00:00 2,1 0,4 1,3 1,4 3,1 6,3 19 11 30 16 ZW 990,0 33 0 0,0
14.12.2017 20:00:00 1,3 0,5 0,2 1,4 3,2 6,3 13 7 28 15 ZZW 990,0 31 0 0,0
14.12.2017 19:00:00 2,5 0,7 1,3 1,9 3,2 6,4 19 10 32 17 ZZW 989,7 65 0 0,0
14.12.2017 18:00:00 2,9 0,4 1,8 2,0 3,3 6,4 22 12 41 22 ZW 989,8 55 0 0,0
14.12.2017 17:00:00 3,7 1,2 2,7 2,8 3,2 6,4 24 13 42 23 ZW 989,3 70 0 0,0
14.12.2017 16:00:00 3,7 2,0 2,7 3,0 3,2 6,4 20 11 36 20 WZW 989,0 63 0 0,1
14.12.2017 15:00:00 4,6 1,7 3,9 3,1 3,1 6,4 19 10 35 19 ZW 988,5 37 0 0,0
14.12.2017 14:00:00 4,6 2,0 4,0 3,2 2,9 6,4 23 12 39 21 WZW 987,7 38 0 0,0
14.12.2017 13:00:00 4,5 1,9 3,9 3,0 2,8 6,4 23 12 36 19 ZW 987,3 41 0 0,0
14.12.2017 12:00:00 4,5 2,0 4,0 2,7 2,7 6,4 23 12 36 19 ZW 986,9 48 0 0,0
14.12.2017 11:00:00 4,2 1,9 3,7 2,3 2,6 6,4 24 13 44 24 ZW 986,5 55 5 0,0
14.12.2017 10:00:00 4,1 1,8 2,9 1,8 2,6 6,4 30 16 45 24 ZW 985,3 18 24 0,0
14.12.2017 09:00:00 3,9 2,1 3,1 1,2 2,6 6,4 27 14 48 26 ZW 984,8 60 0 0,0
14.12.2017 08:00:00 3,5 2,3 2,3 0,9 2,7 6,4 25 13 39 21 ZW 984,0 67 0 0,4
14.12.2017 07:00:00 1,6 1,3 0,9 1,0 2,8 6,4 20 11 44 24 ZZW 983,6 10 0 1,1
14.12.2017 06:00:00 0,6 0,5 0,0 1,1 2,8 6,4 26 14 47 26 Z 983,1 3,5 0 2,0
14.12.2017 05:00:00 0,7 0,5 0,0 1,3 2,8 6,4 27 14 41 22 Z 984,0 2,5 0 1,4
14.12.2017 04:00:00 1,4 0,8 0,9 1,7 2,8 6,4 25 14 40 22 Z 985,2 4,7 0 0,2
14.12.2017 03:00:00 2,0 0,9 1,3 1,8 2,8 6,4 24 13 39 21 Z 986,6 28 0 0,0
14.12.2017 02:00:00 1,9 1,1 1,4 1,7 2,8 6,4 23 12 40 22 Z 988,4 27 0 0,0
14.12.2017 01:00:00 1,8 1,0 1,3 1,6 2,8 6,5 29 16 45 24 Z 990,0 29 0 0,0
14.12.2017 00:00:00 1,5 0,8 1,0 1,6 2,8 6,5 25 13 48 26 Z 991,5 13 0 0,0
13.12.2017 23:00:00 1,4 0,8 1,0 1,5 2,8 6,5 29 15 50 27 Z 992,8 16 0 0,2
13.12.2017 22:00:00 1,4 0,7 0,9 1,5 2,8 6,5 32 17 49 26 Z 994,2 14 0 0,4
13.12.2017 21:00:00 1,5 0,4 0,8 1,4 2,8 6,5 29 16 56 30 Z 995,6 7 0 0,1
13.12.2017 20:00:00 3,1 -1,5 2,5 1,4 2,8 6,5 33 18 54 29 Z 996,9 54 0 0,0
13.12.2017 19:00:00 2,8 -1,6 2,0 1,1 2,8 6,5 27 15 50 27 Z 998,3 70 0 0,0
13.12.2017 18:00:00 2,6 -1,2 1,6 1,1 2,9 6,5 27 14 48 26 Z 999,9 64 0 0,0
13.12.2017 17:00:00 1,9 -1,1 0,7 0,9 3,0 6,5 26 14 39 21 Z 1001,3 47 0 0,0
13.12.2017 16:00:00 1,8 -1,2 0,4 1,4 3,0 6,5 21 11 35 19 Z 1003,2 42 1 0,0
13.12.2017 15:00:00 2,4 -1,1 1,5 2,0 3,0 6,5 23 12 41 22 Z 1004,1 33 54 0,0
13.12.2017 14:00:00 2,6 -1,1 2,0 2,4 2,9 6,5 26 14 45 24 Z 1005,5 29 54 0,0
13.12.2017 13:00:00 2,8 -0,6 2,8 2,3 2,8 6,5 27 15 42 23 Z 1006,7 11 51 0,0
13.12.2017 12:00:00 2,0 -1,0 1,7 2,1 2,8 6,5 26 14 40 22 Z 1008,5 15 60 0,0
13.12.2017 11:00:00 1,8 -0,7 1,4 1,4 2,8 6,5 23 13 36 20 Z 1009,7 14 60 0,0
13.12.2017 10:00:00 1,3 -0,7 0,3 0,8 2,8 6,5 20 11 31 17 Z 1010,4 19 46 0,0
13.12.2017 09:00:00 1,2 -1,1 -0,3 1,0 2,9 6,5 16 8 32 18 ZZW 1011,1 20 0 0,0
13.12.2017 08:00:00 2,0 -0,9 1,2 1,5 2,9 6,5 21 11 30 16 ZW 1011,5 20 0 0,0
13.12.2017 07:00:00 2,0 -0,3 1,4 1,5 2,9 6,5 16 9 33 18 ZW 1011,7 15 0 0,0
13.12.2017 06:00:00 2,1 -0,3 1,5 1,4 2,9 6,5 19 11 29 16 ZW 1012,0 16 0 0,0
13.12.2017 05:00:00 2,1 0,0 1,5 1,1 2,9 6,5 19 10 34 18 ZW 1011,9 18 0 0,0
13.12.2017 04:00:00 1,8 0,1 1,2 1,0 3,0 6,5 23 12 33 18 ZW 1012,0 21 0 0,0
13.12.2017 03:00:00 1,6 0,3 1,0 1,0 3,0 6,5 18 10 31 17 ZW 1011,8 21 0 0,0
13.12.2017 02:00:00 1,3 0,4 0,7 1,1 3,1 6,5 18 10 33 18 ZW 1011,1 15 0 0,0
13.12.2017 01:00:00 1,0 0,2 0,5 1,1 3,1 6,5 20 11 36 19 ZW 1010,8 14 0 0,0
13.12.2017 00:00:00 0,6 -0,1 -0,3 1,1 3,2 6,5 21 11 32 17 WZW 1010,4 11 0 0,0
12.12.2017 23:00:00 0,5 -0,3 -0,5 1,1 3,3 6,5 15 8 31 17 ZW 1009,7 14 0 0,0
12.12.2017 22:00:00 1,1 0,4 0,1 1,1 3,4 6,5 19 10 32 17 WZW 1009,1 12 0 0,0
12.12.2017 21:00:00 0,9 0,3 -0,1 1,2 3,6 6,5 18 10 27 15 WZW 1007,9 16 0 0,0
12.12.2017 20:00:00 1,0 0,6 0,1 1,6 3,7 6,6 19 10 30 16 WZW 1006,3 17 0 0,0
12.12.2017 19:00:00 0,7 0,5 0,5 1,8 3,8 6,6 17 9 27 14 WZW 1004,7 21 0 0,6
12.12.2017 18:00:00 0,8 0,5 0,3 2,2 3,9 6,6 20 11 37 20 WZW 1003,2 4,9 0 0,9
12.12.2017 17:00:00 1,5 1,0 1,0 2,7 4,0 6,6 24 13 39 21 WZW 1001,3 8 0 0,6
12.12.2017 16:00:00 2,2 1,4 1,7 2,9 4,0 6,6 24 13 42 23 WZW 999,8 18 0 0,3
12.12.2017 15:00:00 2,1 1,3 1,7 3,1 4,1 6,6 26 14 46 25 WZW 998,0 18 0 0,1
12.12.2017 14:00:00 2,2 1,3 1,8 3,4 4,1 6,6 30 16 49 27 WZW 996,3 21 0 0,0
12.12.2017 13:00:00 2,8 1,2 2,5 3,8 4,1 6,6 29 16 48 26 WZW 995,0 43 0 0,0
12.12.2017 12:00:00 3,5 2,2 3,0 4,2 4,0 6,6 28 15 53 29 WZW 993,4 18 0 0,0
12.12.2017 11:00:00 5,7 4,1 4,8 4,7 3,9 6,6 29 16 45 25 WZW 991,3 44 0 0,6
12.12.2017 10:00:00 6,7 5,3 5,8 4,6 3,8 6,6 22 12 37 20 ZZW 989,9 31 0 0,2
12.12.2017 09:00:00 6,7 5,1 5,7 4,4 3,7 6,6 21 11 39 21 ZW 989,0 13 0 0,1
12.12.2017 08:00:00 7,3 5,0 6,4 4,2 3,6 6,6 22 12 40 21 ZZW 988,0 70 0 0,0
12.12.2017 07:00:00 6,8 5,1 5,8 3,9 3,5 6,6 19 10 29 16 ZZW 987,0 70 0 0,0
12.12.2017 06:00:00 6,4 5,2 5,7 3,7 3,4 6,7 16 9 29 16 ZZW 986,6 43 0 0,0
12.12.2017 05:00:00 5,8 5,1 4,8 3,5 3,3 6,7 16 9 27 15 Z 986,0 24 0 0,0
12.12.2017 04:00:00 5,6 4,9 4,8 3,4 3,2 6,7 18 10 26 14 ZZW 985,5 15 0 0,0
12.12.2017 03:00:00 5,1 4,7 4,4 3,2 3,1 6,7 15 8 23 13 Z 985,7 9 0 0,0
12.12.2017 02:00:00 4,7 4,5 4,0 3,0 3,1 6,7 13 7 18 10 Z 985,6 8 0 0,0
12.12.2017 01:00:00 4,5 4,3 3,8 2,9 3,0 6,7 10 5 16 8 Z 985,3 7 0 0,0
12.12.2017 00:00:00 4,6 4,5 3,9 2,9 2,9 6,7 11 6 32 18 ZZW 985,3 7 0 0,1
11.12.2017 23:00:00 4,9 4,5 4,3 2,7 2,8 6,7 19 10 31 17 Z 984,4 7 0 0,1
11.12.2017 22:00:00 4,2 3,9 3,6 2,2 2,7 6,7 11 6 32 17 Z 984,3 6 0 0,2
11.12.2017 21:00:00 2,6 2,6 2,3 1,9 2,6 6,7 5 3 12 6 OZO 985,0 2,8 0 0,1
11.12.2017 20:00:00 2,1 2,0 1,9 1,7 2,6 6,8 4 2 10 5 OZO 985,8 2,6 0 0,6
11.12.2017 19:00:00 1,8 1,4 1,5 1,4 2,5 6,8 5 3 12 6 O 986,3 2,6 0 0,4
11.12.2017 18:00:00 1,5 0,9 1,1 1,2 2,5 6,8 7 4 16 8 O 986,5 6 0 0,2
11.12.2017 17:00:00 1,3 0,6 1,0 1,2 2,5 6,8 6 3 12 6 O 987,4 9 0 0,0
11.12.2017 16:00:00 1,5 0,7 1,0 1,1 2,5 6,8 6 4 11 6 ZO 987,9 10 0 0,0
11.12.2017 15:00:00 1,6 0,5 1,1 1,0 2,5 6,8 6 3 15 8 ZZO 987,6 13 0 0,0
11.12.2017 14:00:00 1,9 0,6 1,4 0,9 2,5 6,8 10 6 25 14 ZZW 988,1 15 0 0,0
11.12.2017 13:00:00 2,0 0,9 1,6 0,8 2,5 6,8 12 7 22 12 ZZW 987,7 12 0 0,0
11.12.2017 12:00:00 2,1 1,4 1,7 0,8 2,5 6,8 11 6 24 13 ZZW 987,5 11 0 0,0
11.12.2017 11:00:00 2,0 1,7 1,5 0,8 2,5 6,8 13 7 26 14 ZZW 987,3 8 0 0,0
11.12.2017 10:00:00 1,9 1,7 1,3 0,8 2,5 6,8 13 7 23 12 ZZW 986,5 4,7 0 0,0
11.12.2017 09:00:00 2,0 1,6 1,3 0,8 2,5 6,9 11 6 23 12 ZZW 985,3 9 0 0,0
11.12.2017 08:00:00 2,1 1,4 1,3 0,8 2,6 6,9 15 8 22 12 ZZW 984,4 22 0 0,0
11.12.2017 07:00:00 1,3 1,0 0,7 0,8 2,6 6,9 12 6 21 11 ZZW 983,2 18 0 0,0
11.12.2017 06:00:00 0,8 0,5 0,3 0,8 2,6 6,9 12 6 16 9 Z 981,5 12 0 0,1
11.12.2017 05:00:00 0,4 0,2 0,0 0,8 2,6 6,9 11 6 19 10 ZZO 980,8 12 0 0,3
11.12.2017 04:00:00 -0,4 -0,6 -0,5 0,8 2,6 6,9 9 5 16 9 OZO 980,7 1,7 0 0,9
11.12.2017 03:00:00 -0,8 -1,1 -0,8 0,8 2,6 6,9 10 6 19 10 OZO 981,1 1,9 0 0,6
11.12.2017 02:00:00 -1,1 -1,4 -1,1 0,8 2,6 6,9 11 6 22 12 OZO 981,4 1,3 0 0,3
11.12.2017 01:00:00 -1,2 -1,9 -1,3 0,8 2,7 6,9 12 6 24 13 OZO 982,0 1,2 0 0,1
11.12.2017 00:00:00 -1,1 -2,3 -1,3 0,8 2,7 6,9 11 6 28 15 ZO 983,1 7 0 0,0
10.12.2017 23:00:00 -1,3 -2,5 -1,6 0,8 2,7 6,9 15 8 24 13 OZO 983,8 8 0 0,1
10.12.2017 22:00:00 -1,6 -2,5 -1,7 0,8 2,7 7,0 11 6 26 14 OZO 984,9 4,1 0 0,1
10.12.2017 21:00:00 -1,5 -2,8 -1,3 0,8 2,8 7,0 16 9 37 20 ZZO 985,9 3,5 0 0,0
10.12.2017 20:00:00 -0,1 -4,7 -0,5 0,8 2,8 7,0 21 11 38 21 ZZO 986,2 26 0 0,0
10.12.2017 19:00:00 -0,1 -4,4 -0,7 0,8 2,8 7,0 23 12 36 20 ZZO 986,8 41 0 0,0
10.12.2017 18:00:00 -0,2 -4,3 -0,8 0,9 2,9 7,0 17 9 35 19 ZZO 988,2 47 0 0,0
10.12.2017 17:00:00 -0,1 -4,2 -0,6 0,9 2,9 7,0 22 12 34 19 ZZO 989,0 58 0 0,0
10.12.2017 16:00:00 0,1 -3,6 -0,4 1,0 2,9 7,0 19 11 36 20 Z 989,8 56 0 0,0
10.12.2017 15:00:00 0,3 -3,1 -0,4 1,1 2,9 7,0 22 12 37 20 ZZO 990,9 52 14 0,0
10.12.2017 14:00:00 0,7 -2,9 0,4 1,2 2,9 7,0 19 10 37 20 Z 992,4 22 38 0,0
10.12.2017 13:00:00 1,0 -2,6 0,8 1,2 2,9 7,0 26 14 38 21 Z 994,0 24 16 0,0
10.12.2017 12:00:00 0,8 -2,2 0,6 0,9 3,0 7,0 23 12 39 21 Z 995,6 37 0 0,0
10.12.2017 11:00:00 0,6 -1,9 0,4 0,9 3,0 7,0 20 11 32 17 Z 996,9 37 15 0,0
10.12.2017 10:00:00 0,6 -2,2 0,1 0,9 3,1 7,0 19 11 32 17 ZZW 997,7 39 0 0,0
10.12.2017 09:00:00 0,2 -2,3 -0,8 1,0 3,1 7,0 18 10 30 16 Z 998,5 32 0 0,0
10.12.2017 08:00:00 0,8 -1,6 0,1 1,0 3,2 7,0 17 9 30 16 ZZW 999,0 27 0 0,0
10.12.2017 07:00:00 1,1 -1,9 0,2 1,1 3,2 7,1 22 12 37 20 ZZW 999,6 28 0 0,0
10.12.2017 06:00:00 1,5 -1,8 0,3 1,1 3,3 7,1 22 12 40 22 ZW 1000,0 26 0 0,0
10.12.2017 05:00:00 2,0 -1,5 1,5 1,6 3,3 7,1 21 12 39 21 ZW 1000,5 39 0 0,0
10.12.2017 04:00:00 2,1 -1,3 1,6 1,6 3,3 7,1 21 11 39 21 ZW 1001,0 59 0 0,0
10.12.2017 03:00:00 2,3 -0,6 1,7 1,6 3,3 7,1 18 10 33 18 ZW 1001,5 46 0 0,0
10.12.2017 02:00:00 2,2 -0,4 1,7 1,6 3,3 7,1 18 10 37 20 ZW 1001,8 54 0 0,0

tt = temperatuur
td = dauwpunt
tt 5cm = temperatuur 5cm
tt -5cm = temperatuur -5cm
tt -20cm = temperatuur -20cm
tt -100cm = temperatuur -100cm
ff = windsnelheid
fx = windstoten
dd = windrichting
ppp = luchtdruk
vv = zicht
sd = Zonneschijnduur
rr = neerslag

Weerstations in de omgeving